Location: Antioch Baptist Church
(32.6696°N, 85.7327°W)
Time: 20:59:45
(UTC+00:00)

USA 238 - Pass Details

Date: 14 July 2020
Orbit: 1009 x 1203 km, 63.4° (Epoch: 11 August)

Event Time Altitude Azimuth Distance (km) Brightness Sun altitude
Exits shadow 08:20:53 35° 165° (SSE) 1,580 4.3 -24.7°
Maximum altitude 08:23:13 50° 114° (ESE) 1,284 4.1 -24.4°
Drops below altitude 10° 08:29:39 10° 41° (NE) 2,864 7.1 -23.5°
Sets 08:32:24 0° 36° (NE) 3,847 8.1 -23.2°
